McConnell AFB, KS

7:14 PM CST on December 06, 2019 (GMT -0600)
McConnell Air Force Base

Weather History for KIAB - June, 2019

Change the Weather History Date:

Friday, June 14, 2019

  Actual Average Record
Temperature  
Mean Temperature 72 °F -  
Max Temperature 83 °F 81 °F 98 °F (2018)
Min Temperature 60 °F 62 °F 59 °F (2002)
Cooling Degree Days 6    
Growing Degree Days 22 (Base 50)    
Moisture  
Dew Point 57 °F    
Average Humidity 64    
Maximum Humidity 82    
Minimum Humidity 49    
Precipitation  
Precipitation 0.01 in - - ()
Sea Level Pressure  
Sea Level Pressure 29.88 in    
Wind  
Wind Speed 14 mph (SE)    
Max Wind Speed 28 mph    
Max Gust Speed 34 mph    
Visibility 10 miles    
Events Rain , Thunderstorm    
Averages and records for this station are not official NWS values.
T = Trace of Precipitation, MM = Missing Value Source: NWS Daily Summary

Daily Weather History Graph

Daily Weather History Graph

Search for Another Location

Airport or City:

Astronomy

Jun. 14, 2019 Rise Set
Actual Time 6:07 AM CDT 8:51 PM CDT
Civil Twilight 5:35 AM CDT 9:22 PM CDT
Nautical Twilight 4:56 AM CDT 10:01 PM CDT
Astronomical Twilight 4:12 AM CDT 10:46 PM CDT
Moon 6:17 PM CDT (6/14) 4:21 AM CDT (6/14)
Length of Visible Light 15h 47m
Length of Day
14h 44m
Waxing Gibbous, 92% of the Moon is Illuminated
Jun 14
Waxing Gibbous
Jun 17
Full
Jun 25
Last Quarter
Jul 2
New
Jul 9
First Quarter

Hourly Weather History & Observations

Time (CDT) Temp. Heat Index Dew Point Humidity Pressure Visibility Wind Dir Wind Speed Gust Speed Precip Events Conditions
12:56 AM 67.5 °F - 48.2 °F 50% 29.97 in 10.0 mi ESE 11.5 mph - N/A   Clear
1:16 AM 68.0 °F - 48.2 °F 49% 29.96 in 10.0 mi ESE 13.8 mph - N/A   Light Drizzle
1:27 AM 66.2 °F - 50.0 °F 56% 29.95 in 10.0 mi ESE 13.8 mph - N/A   Mostly Cloudy
2:56 AM 66.4 °F - 48.2 °F 52% 29.94 in 10.0 mi ESE 16.1 mph 23.0 mph N/A   Overcast
3:15 AM 66.2 °F - 50.0 °F 56% 29.97 in 10.0 mi SE 6.9 mph - N/A Thunderstorm Light Drizzle
3:21 AM 66.2 °F - 50.0 °F 56% 29.97 in 10.0 mi SE 10.4 mph - N/A Rain , Thunderstorm Light Thunderstorms and Rain
3:29 AM 64.4 °F - 53.6 °F 68% 29.97 in 10.0 mi SSE 12.7 mph - N/A Rain , Thunderstorm Light Thunderstorms and Rain
3:50 AM 60.8 °F - 55.4 °F 82% 29.93 in 10.0 mi East 12.7 mph - N/A Thunderstorm Thunderstorm
3:51 AM 60.8 °F - 55.4 °F 82% 29.93 in 10.0 mi East 12.7 mph - N/A   Overcast
3:56 AM 61.3 °F - 53.4 °F 75% 29.94 in 10.0 mi East 9.2 mph - N/A Thunderstorm Overcast
4:56 AM 62.2 °F - 52.7 °F 71% 29.93 in 10.0 mi ESE 11.5 mph - N/A   Mostly Cloudy
5:21 AM 62.6 °F - 53.6 °F 72% 29.97 in 10.0 mi East 8.1 mph - N/A Rain Light Rain
5:31 AM 62.6 °F - 53.6 °F 72% 29.96 in 10.0 mi East 11.5 mph - N/A   Overcast
5:56 AM 61.9 °F - 53.1 °F 73% 29.94 in 10.0 mi East 15.0 mph - 0.01 in   Mostly Cloudy
6:56 AM 61.9 °F - 54.5 °F 77% 29.96 in 10.0 mi ESE 11.5 mph - N/A   Mostly Cloudy
7:56 AM 64.6 °F - 56.5 °F 75% 29.92 in 10.0 mi ESE 16.1 mph - N/A   Partly Cloudy
8:56 AM 66.6 °F - 57.2 °F 72% 29.91 in 10.0 mi ESE 18.4 mph - N/A   Mostly Cloudy
9:56 AM 70.5 °F - 58.1 °F 65% 29.88 in 10.0 mi SE 23.0 mph 28.8 mph N/A   Mostly Cloudy
10:56 AM 71.4 °F - 58.6 °F 64% 29.87 in 10.0 mi SE 27.6 mph 32.2 mph N/A   Scattered Clouds
11:56 AM 75.2 °F - 60.3 °F 60% 29.84 in 10.0 mi SE 21.9 mph 34.5 mph N/A   Scattered Clouds
12:56 PM 78.3 °F - 62.2 °F 58% 29.81 in 10.0 mi SSE 21.9 mph 34.5 mph N/A   Scattered Clouds
1:56 PM 79.9 °F - 62.8 °F 56% 29.79 in 10.0 mi SSE 21.9 mph 26.5 mph N/A   Scattered Clouds
3:56 PM 83.7 °F 85.3 °F 65.1 °F 53% 29.75 in 10.0 mi SSE 20.7 mph 26.5 mph N/A   Partly Cloudy
4:56 PM 82.4 °F 84.2 °F 65.1 °F 56% 29.75 in 10.0 mi SE 16.1 mph - N/A   Overcast
5:56 PM 82.8 °F 84.7 °F 65.5 °F 56% 29.72 in 10.0 mi SE 20.7 mph 29.9 mph N/A   Partly Cloudy
6:56 PM 82.4 °F 84.8 °F 66.6 °F 59% 29.71 in 10.0 mi SE 19.6 mph - N/A   Partly Cloudy
7:56 PM 80.4 °F 82.7 °F 66.6 °F 63% 29.70 in 10.0 mi SE 18.4 mph 23.0 mph N/A   Mostly Cloudy
8:56 PM 78.3 °F - 67.3 °F 69% 29.70 in 10.0 mi SE 12.7 mph - N/A   Clear